KB4UTZ Weather Reports


Display with metric or nautical units.
time (UTC)temp
F
wind
direction
speed
MPH
gust
MPH
rain 1hr
in
rain 24hr
in
rain mn
in
humidity
%
barometer
mb
20260505164039 77 287 3.0 5.0 0.00 0.00 0.00 38 1018.7
20260505163059 76 280 3.0 8.0 0.00 0.00 0.00 37 1018.8
20260505162039 76 254 3.0 6.0 0.00 0.00 0.00 37 1018.7
20260505161039 76 280 3.0 9.0 0.00 0.00 0.00 37 1018.7
20260505153059 74 151 4.0 8.0 0.00 0.00 0.00 39 1018.8
20260505152039 74 159 3.0 6.0 0.00 0.00 0.00 39 1018.7
20260505151038 74 317 2.0 6.0 0.00 0.00 0.00 41 1018.7
20260505125038 60 340 1.0 2.0 0.00 0.00 0.00 74 1018.8
20260505124059 58 0.0 1.0 0.00 0.00 0.00 76 1018.8
20260505123038 57 340 1.0 2.0 0.00 0.00 0.00 77 1018.8
20260505122038 56 60 2.0 5.0 0.00 0.00 0.00 78 1018.7
20260505121119 54 159 1.0 3.0 0.00 0.00 0.00 82 1018.8
20260505120038 52 346 2.0 4.0 0.00 0.00 0.00 85 1018.7
20260505115038 50 16 1.0 3.0 0.00 0.00 0.00 91 1018.6
20260505114038 49 230 1.0 3.0 0.00 0.00 0.00 92 1018.5
20260505113038 48 174 1.0 4.0 0.00 0.00 0.00 93 1018.4
20260505112038 48 337 2.0 3.0 0.00 0.00 0.00 93 1018.1
20260505111038 47 322 1.0 3.0 0.00 0.00 0.00 93 1017.9
20260505102037 48 259 1.0 6.0 0.00 0.00 0.00 91 1018.0
20260505101037 48 360 2.0 6.0 0.00 0.00 0.00 90 1018.0
20260505100037 48 284 1.0 4.0 0.00 0.00 0.00 90 1018.0
20260505095038 49 323 2.0 4.0 0.00 0.00 0.00 90 1017.9
20260505094038 49 357 0.0 3.0 0.00 0.00 0.00 89 1018.0
20260505093058 49 146 1.0 3.0 0.00 0.00 0.00 88 1018.1
20260505092037 50 1 3.0 4.0 0.00 0.00 0.00 87 1018.1
20260505091038 50 331 2.0 4.0 0.00 0.00 0.00 88 1017.8
20260505090037 50 315 1.0 4.0 0.00 0.00 0.00 87 1017.7
20260505085037 50 360 2.0 5.0 0.00 0.00 0.00 86 1017.8
20260505084037 51 280 2.0 3.0 0.00 0.00 0.00 85 1017.7
20260505083058 51 270 1.0 3.0 0.00 0.00 0.00 85 1017.6
20260505082037 51 323 1.0 4.0 0.00 0.00 0.00 84 1017.6
20260505081037 52 309 2.0 4.0 0.00 0.00 0.00 83 1017.6
20260505080038 52 178 1.0 3.0 0.00 0.00 0.00 81 1017.5
20260505075038 53 349 1.0 3.0 0.00 0.00 0.00 80 1017.4
20260505074058 54 328 1.0 3.0 0.00 0.00 0.00 78 1017.4
20260505073038 54 0.0 2.0 0.00 0.00 0.00 77 1017.4
20260505072037 56 51 0.0 2.0 0.00 0.00 0.00 75 1017.5
20260505071037 57 341 2.0 3.0 0.00 0.00 0.00 70 1017.5
20260505070037 58 314 1.0 3.0 0.00 0.00 0.00 67 1017.4
20260505065038 60 251 1.0 3.0 0.00 0.00 0.00 66 1017.4
20260505064038 61 298 2.0 5.0 0.00 0.00 0.00 63 1017.2
20260505063058 62 300 2.0 6.0 0.00 0.00 0.00 56 1017.2
20260505062038 63 306 2.0 4.0 0.00 0.00 0.00 58 1017.3
20260505061038 63 272 2.0 8.0 0.00 0.00 0.00 57 1017.2
20260505060058 64 288 2.0 4.0 0.00 0.00 0.00 55 1017.2
20260505055038 65 291 2.0 6.0 0.00 0.00 0.00 53 1017.2
20260505054037 64 317 3.0 10.0 0.00 0.00 0.00 54 1017.3
20260505053037 63 341 3.0 7.0 0.00 0.00 0.00 58 1017.1
20260505052038 61 256 3.0 5.0 0.00 0.00 0.00 61 1017.1
20260505051037 61 284 1.0 3.0 0.00 0.00 0.00 64 1017.3
20260505041037 55 325 1.0 3.0 0.00 0.00 0.00 81 1017.1
20260505040038 55 266 1.0 3.0 0.00 0.00 0.00 81 1017.0
20260505035038 55 318 2.0 4.0 0.00 0.00 0.00 80 1016.9
20260505034037 56 304 1.0 4.0 0.00 0.00 0.00 80 1017.0
20260505033037 56 290 2.0 4.0 0.00 0.00 0.00 78 1017.1
20260505032037 56 307 2.0 19.0 0.00 0.00 0.00 78 1017.3
20260505031037 57 248 1.0 3.0 0.00 0.00 0.00 78 1017.2
20260505030038 57 323 1.0 3.0 0.00 0.00 0.00 77 1017.2
20260505025038 58 321 1.0 4.0 0.00 0.00 0.00 75 1017.4
20260505024038 58 291 1.0 2.0 0.00 0.00 0.00 74 1017.5
20260505023058 59 295 0.0 2.0 0.00 0.00 0.00 73 1017.5
20260505022037 60 290 1.0 2.0 0.00 0.00 0.00 72 1017.5
20260505021038 60 316 1.0 3.0 0.00 0.00 0.00 70 1017.4
20260505020037 61 88 0.0 2.0 0.00 0.00 0.00 68 1017.3
20260505015037 63 330 1.0 3.0 0.00 0.00 0.00 66 1017.2
20260505014037 63 257 1.0 4.0 0.00 0.00 0.00 65 1017.0
20260505013037 63 336 1.0 2.0 0.00 0.00 0.00 66 1017.0
20260505012037 64 298 2.0 4.0 0.00 0.00 0.00 63 1016.9
20260505011037 64 333 1.0 2.0 0.00 0.00 0.00 64 1016.9
20260505010038 65 285 1.0 2.0 0.00 0.00 0.00 63 1016.8
20260505005038 66 279 0.0 2.0 0.00 0.00 0.00 60 1016.7
20260505004038 68 275 2.0 2.0 0.00 0.00 0.00 56 1016.7
20260505003038 69 282 2.0 4.0 0.00 0.00 0.00 52 1016.5
20260505002038 70 287 2.0 3.0 0.00 0.00 0.00 49 1016.5
20260505001038 71 283 2.0 4.0 0.00 0.00 0.00 48 1016.4
20260505000037 71 302 2.0 4.0 0.00 0.00 0.00 48 1016.4
20260504235059 71 289 3.0 6.0 0.00 0.00 0.00 49 1016.3
20260504234038 72 284 2.0 4.0 0.00 0.00 0.00 49 1016.2
20260504233037 72 296 2.0 5.0 0.00 0.00 0.00 49 1016.1
20260504232037 72 314 3.0 4.0 0.00 0.00 0.00 49 1016.1
20260504231037 73 312 3.0 4.0 0.00 0.00 0.00 48 1016.1
20260504230037 74 289 2.0 3.0 0.00 0.00 0.00 47 1016.2
20260504225058 75 281 1.0 3.0 0.00 0.00 0.00 45 1016.1
20260504224057 76 291 2.0 4.0 0.00 0.00 0.00 43 1016.1
20260504223037 77 266 2.0 5.0 0.00 0.00 0.00 41 1016.1
20260504222058 78 295 2.0 6.0 0.00 0.00 0.00 41 1016.0
20260504221037 79 284 2.0 5.0 0.00 0.00 0.00 40 1016.0
20260504220058 79 266 2.0 4.0 0.00 0.00 0.00 40 1016.1
20260504215038 79 263 1.0 4.0 0.00 0.00 0.00 39 1016.1
20260504214038 79 187 2.0 4.0 0.00 0.00 0.00 39 1016.0
20260504213058 78 251 2.0 4.0 0.00 0.00 0.00 40 1016.0
20260504212038 79 196 3.0 6.0 0.00 0.00 0.00 38 1016.0
20260504211058 79 181 2.0 6.0 0.00 0.00 0.00 38 1016.2
20260504210037 79 155 3.0 6.0 0.00 0.00 0.00 38 1016.1
20260504205038 79 119 2.0 4.0 0.00 0.00 0.00 38 1016.3
20260504204038 79 225 3.0 6.0 0.00 0.00 0.00 38 1016.4
20260504203037 79 182 1.0 4.0 0.00 0.00 0.00 38 1016.4
20260504202037 78 300 3.0 7.0 0.00 0.00 0.00 38 1016.6
20260504201038 79 45 4.0 11.0 0.00 0.00 0.00 38 1016.7
20260504200057 78 117 2.0 7.0 0.00 0.00 0.00 39 1016.8
20260504195037 78 167 3.0 9.0 0.00 0.00 0.00 41 1016.9
20260504194037 78 241 2.0 10.0 0.00 0.00 0.00 41 1016.9
20260504193037 78 190 2.0 8.0 0.00 0.00 0.00 40 1017.2
20260504192037 78 172 2.0 5.0 0.00 0.00 0.00 39 1017.4
20260504191037 77 173 3.0 7.0 0.00 0.00 0.00 41 1017.6
20260504190038 77 181 2.0 8.0 0.00 0.00 0.00 41 1017.8
20260504185038 78 207 3.0 4.0 0.00 0.00 0.00 41 1018.0
20260504184038 77 242 2.0 6.0 0.00 0.00 0.00 39 1018.1
20260504183038 78 201 3.0 8.0 0.00 0.00 0.00 40 1018.3
20260504182058 77 207 2.0 4.0 0.00 0.00 0.00 40 1018.4
20260504181037 77 180 3.0 8.0 0.00 0.00 0.00 40 1018.3
20260504180038 78 275 2.0 4.0 0.00 0.00 0.00 38 1018.4
20260504175058 77 232 2.0 4.0 0.00 0.00 0.00 39 1018.5
20260504174058 76 170 3.0 6.0 0.00 0.00 0.00 39 1018.8
20260504173038 77 230 4.0 11.0 0.00 0.00 0.00 39 1018.8
20260504172037 76 286 3.0 6.0 0.00 0.00 0.00 40 1019.0
20260504171037 75 271 4.0 7.0 0.00 0.00 0.00 39 1019.2